Regional Weather Roundup
Issued by NWS

Home | Current Version | Previous Version | Text Only | Print | Product List | Glossary On
Versions: 1 2 3 4 5 6 7 8 9 10 11 12 13 14 15 16 17 18 19 20 21 22 23 24 25 26 27 28 29 30 31 32 33 34 35 36 37 38 39 40 41 42 43 44 45 46 47 48 49 50
000
ASUS43 KLSX 190407
RWRMO

WEATHER SUMMARY FOR MISSOURI
NATIONAL WEATHER SERVICE SPRINGFIELD MO
1100 PM CDT FRI AUG 18 2017

NOTE: "FAIR" INDICATES FEW OR NO CLOUDS BELOW 12,000 FEET WITH NO
       SIGNIFICANT WEATHER AND/OR OBSTRUCTIONS TO VISIBILITY.
       CURRENT SKY AND/OR WEATHER CONDITIONS ARE NOT AVAILABLE FOR
       CHILLICOTHE AND FARMINGTON.

MOZ001>031-035>038-043-044-053-054-190500-
...NORTHERN AND WESTERN MISSOURI...

CITY           SKY/WX    TMP DP  RH WIND       PRES   REMARKS
KANSAS CTY INT FAIR      72  67  84 SE3       29.94R
KANSAS C DTWN  FAIR      77  69  76 CALM      29.92S
LEE`S SUMMIT   FAIR      74  70  87 SE7       29.95R
ST JOSEPH      FAIR      68  67  96 S3        29.93R
CHILLICOTHE      N/A     69  68  96 CALM      29.94R
KIRKSVILLE     FAIR      69  66  90 W3        29.93R

$$
MOZ066>068-077>081-088>096-101>105-190500-
...SOUTHWEST MISSOURI...

CITY           SKY/WX    TMP DP  RH WIND       PRES   REMARKS
SPRINGFIELD    FAIR      70  67  90 S6        29.98S
JOPLIN         FAIR      71  68  90 S6        29.96S
BRANSON        FAIR      66  64  94 CALM      30.01S

$$
MOZ032>034-039>042-045>050-055>058-069>072-190500-
...CENTRAL MISSOURI...

CITY           SKY/WX    TMP DP  RH WIND       PRES   REMARKS
COLUMBIA       FAIR      74  70  87 SE7       29.91F
JEFFERSON CITY LGT RAIN  73  73 100 E7        29.89F
ROLLA          MOCLDY    73  66  78 S10       29.98F
SEDALIA        TSTM      68  68 100 E10       29.98R
WHITEMAN AFB   PTCLDY    71  71 100 S3        29.93F
WARRENSBURG    FAIR      70  64  83 CALM      29.94F
OSAGE BEACH    MOCLDY    70  68  93 SW3       29.94F

$$
MOZ051-052-059>065-190500-
...EAST CENTRAL MISSOURI...

CITY           SKY/WX    TMP DP  RH WIND       PRES   REMARKS
ST LOUIS INTL  FAIR      78  66  66 SW10      29.94F
SPIRIT OF STL  FAIR      73  69  87 CALM      29.91F
ST CHARLES     FAIR      71  68  90 S8        29.89F

$$
MOZ072>076-082>087-097>100-106>115-190500-
...SOUTH CENTRAL AND SOUTHEAST MISSOURI...

CITY           SKY/WX    TMP DP  RH WIND       PRES   REMARKS
CAPE GIRARDEAU FAIR      73  69  87 CALM      29.96S
FARMINGTON     FAIR      71  67  87 CALM      29.99R
POPLAR BLUFF   FAIR      73  71  93 CALM      29.96S
WEST PLAINS    FAIR      71  68  90 CALM      30.01R

$$


USA.gov is the U.S. government's official web portal to all federal, state and local government web resources and services.